Year,Month,Day,Hour,Minute,Value (Times are PST for temperature in C)
2006,04,17,00,00,5.70
2006,04,17,00,01,5.70
2006,04,17,00,02,5.70
2006,04,17,00,03,5.70
2006,04,17,00,04,5.70
2006,04,17,00,05,5.70
2006,04,17,00,06,5.70
2006,04,17,00,07,5.70
2006,04,17,00,08,5.60
2006,04,17,00,09,5.60
2006,04,17,00,10,5.60
2006,04,17,00,11,5.60
2006,04,17,00,12,5.50
2006,04,17,00,13,5.50
2006,04,17,00,14,5.40
2006,04,17,00,15,5.40
2006,04,17,00,16,5.40
2006,04,17,00,17,5.40
2006,04,17,00,18,5.30
2006,04,17,00,19,5.30
2006,04,17,00,20,5.30
2006,04,17,00,21,5.30
2006,04,17,00,22,5.20
2006,04,17,00,23,5.20
2006,04,17,00,24,5.20
2006,04,17,00,25,5.10
2006,04,17,00,26,5.10
2006,04,17,00,27,5.10
2006,04,17,00,28,5.10
2006,04,17,00,29,5.10
2006,04,17,00,30,5.10
2006,04,17,00,31,5.10
2006,04,17,00,32,5.10
2006,04,17,00,33,5.10
2006,04,17,00,34,5.10
2006,04,17,00,35,5.10
2006,04,17,00,36,5.10
2006,04,17,00,37,5.00
2006,04,17,00,38,4.90
2006,04,17,00,39,4.90
2006,04,17,00,40,4.90
2006,04,17,00,41,4.90
2006,04,17,00,42,4.90
2006,04,17,00,43,4.90
2006,04,17,00,44,4.90
2006,04,17,00,45,4.90
2006,04,17,00,46,4.90
2006,04,17,00,47,4.80
2006,04,17,00,48,4.80
2006,04,17,00,49,4.80
2006,04,17,00,50,4.80
2006,04,17,00,51,4.80
2006,04,17,00,52,4.70
2006,04,17,00,53,4.70
2006,04,17,00,54,4.70
2006,04,17,00,55,4.80
2006,04,17,00,56,4.80
2006,04,17,00,57,4.80
2006,04,17,00,58,4.70
2006,04,17,00,59,4.70
2006,04,17,01,00,4.70
2006,04,17,01,01,4.70
2006,04,17,01,02,4.70
2006,04,17,01,03,4.60
2006,04,17,01,04,4.60
2006,04,17,01,05,4.60
2006,04,17,01,06,4.60
2006,04,17,01,07,4.50
2006,04,17,01,08,4.50
2006,04,17,01,09,4.50
2006,04,17,01,10,4.40
2006,04,17,01,11,4.40
2006,04,17,01,12,4.40
2006,04,17,01,13,4.40
2006,04,17,01,14,4.30
2006,04,17,01,15,4.30
2006,04,17,01,16,4.30
2006,04,17,01,17,4.20
2006,04,17,01,18,4.20
2006,04,17,01,19,4.20
2006,04,17,01,20,4.20
2006,04,17,01,21,4.20
2006,04,17,01,22,4.20
2006,04,17,01,23,4.20
2006,04,17,01,24,4.20
2006,04,17,01,25,4.20
2006,04,17,01,26,4.20
2006,04,17,01,27,4.20
2006,04,17,01,28,4.20
2006,04,17,01,29,4.20
2006,04,17,01,30,4.20
2006,04,17,01,31,4.10
2006,04,17,01,32,4.10
2006,04,17,01,33,4.10
2006,04,17,01,34,4.00
2006,04,17,01,35,4.00
2006,04,17,01,36,4.00
2006,04,17,01,37,4.00
2006,04,17,01,38,4.00
2006,04,17,01,39,3.90
2006,04,17,01,40,3.90
2006,04,17,01,41,3.90
2006,04,17,01,42,3.90
2006,04,17,01,43,3.90
2006,04,17,01,44,3.80
2006,04,17,01,45,3.80
2006,04,17,01,46,3.80
2006,04,17,01,47,3.80
2006,04,17,01,48,3.80
2006,04,17,01,49,3.80
2006,04,17,01,50,3.80
2006,04,17,01,51,3.80
2006,04,17,01,52,3.80
2006,04,17,01,53,3.80
2006,04,17,01,54,3.80
2006,04,17,01,55,3.80
2006,04,17,01,56,3.80
2006,04,17,01,57,3.80
2006,04,17,01,58,3.80
2006,04,17,01,59,3.80
2006,04,17,02,00,3.80
2006,04,17,02,01,3.80
2006,04,17,02,02,3.80
2006,04,17,02,03,3.80
2006,04,17,02,04,3.80
2006,04,17,02,05,3.80
2006,04,17,02,06,3.80
2006,04,17,02,07,3.80
2006,04,17,02,08,3.70
2006,04,17,02,09,3.70
2006,04,17,02,10,3.60
2006,04,17,02,11,3.60
2006,04,17,02,12,3.60
2006,04,17,02,13,3.50
2006,04,17,02,14,3.50
2006,04,17,02,15,3.50
2006,04,17,02,16,3.40
2006,04,17,02,17,3.40
2006,04,17,02,18,3.40
2006,04,17,02,19,3.50
2006,04,17,02,20,3.50
2006,04,17,02,21,3.50
2006,04,17,02,22,3.50
2006,04,17,02,23,3.50
2006,04,17,02,24,3.50
2006,04,17,02,25,3.50
2006,04,17,02,26,3.50
2006,04,17,02,27,3.50
2006,04,17,02,28,3.40
2006,04,17,02,29,3.40
2006,04,17,02,30,3.40
2006,04,17,02,31,3.40
2006,04,17,02,32,3.40
2006,04,17,02,33,3.40
2006,04,17,02,34,3.40
2006,04,17,02,35,3.50
2006,04,17,02,36,3.50
2006,04,17,02,37,3.50
2006,04,17,02,38,3.60
2006,04,17,02,39,3.60
2006,04,17,02,40,3.60
2006,04,17,02,41,3.60
2006,04,17,02,42,3.60
2006,04,17,02,43,3.70
2006,04,17,02,44,3.70
2006,04,17,02,45,3.70
2006,04,17,02,46,3.70
2006,04,17,02,47,3.70
2006,04,17,02,48,3.60
2006,04,17,02,49,3.60
2006,04,17,02,50,3.60
2006,04,17,02,51,3.50
2006,04,17,02,52,3.50
2006,04,17,02,53,3.50
2006,04,17,02,54,3.50
2006,04,17,02,55,3.50
2006,04,17,02,56,3.50
2006,04,17,02,57,3.50
2006,04,17,02,58,3.50
2006,04,17,02,59,3.50
2006,04,17,03,00,3.40
2006,04,17,03,01,3.40
2006,04,17,03,02,3.40
2006,04,17,03,03,3.40
2006,04,17,03,04,3.30
2006,04,17,03,05,3.30
2006,04,17,03,06,3.30
2006,04,17,03,07,3.30
2006,04,17,03,08,3.30
2006,04,17,03,09,3.30
2006,04,17,03,10,3.30
2006,04,17,03,11,3.30
2006,04,17,03,12,3.20
2006,04,17,03,13,3.20
2006,04,17,03,14,3.20
2006,04,17,03,15,3.10
2006,04,17,03,16,3.10
2006,04,17,03,17,3.10
2006,04,17,03,18,3.10
2006,04,17,03,19,3.10
2006,04,17,03,20,3.10
2006,04,17,03,21,3.10
2006,04,17,03,22,3.10
2006,04,17,03,23,3.10
2006,04,17,03,24,3.10
2006,04,17,03,25,3.10
2006,04,17,03,26,3.10
2006,04,17,03,27,3.10
2006,04,17,03,28,3.10
2006,04,17,03,29,3.10
2006,04,17,03,30,3.10
2006,04,17,03,31,3.10
2006,04,17,03,32,3.10
2006,04,17,03,33,3.00
2006,04,17,03,34,2.90
2006,04,17,03,35,2.90
2006,04,17,03,36,2.90
2006,04,17,03,37,2.90
2006,04,17,03,38,2.90
2006,04,17,03,39,2.80
2006,04,17,03,40,2.80
2006,04,17,03,41,2.80
2006,04,17,03,42,2.80
2006,04,17,03,43,2.80
2006,04,17,03,44,2.80
2006,04,17,03,45,2.80
2006,04,17,03,46,2.80
2006,04,17,03,47,2.80
2006,04,17,03,48,2.80
2006,04,17,03,49,2.80
2006,04,17,03,50,2.80
2006,04,17,03,51,2.80
2006,04,17,03,52,2.80
2006,04,17,03,53,2.70
2006,04,17,03,54,2.70
2006,04,17,03,55,2.70
2006,04,17,03,56,2.70
2006,04,17,03,57,2.70
2006,04,17,03,58,2.80
2006,04,17,03,59,2.80
2006,04,17,04,00,2.80
2006,04,17,04,01,2.80
2006,04,17,04,02,2.80
2006,04,17,04,03,2.80
2006,04,17,04,04,2.80
2006,04,17,04,05,2.80
2006,04,17,04,06,2.80
2006,04,17,04,07,2.80
2006,04,17,04,08,2.80
2006,04,17,04,09,2.70
2006,04,17,04,10,2.70
2006,04,17,04,11,2.70
2006,04,17,04,12,2.70
2006,04,17,04,13,2.70
2006,04,17,04,14,2.70
2006,04,17,04,15,2.70
2006,04,17,04,16,2.80
2006,04,17,04,17,2.80
2006,04,17,04,18,2.80
2006,04,17,04,19,2.80
2006,04,17,04,20,2.80
2006,04,17,04,21,2.80
2006,04,17,04,22,2.80
2006,04,17,04,23,2.80
2006,04,17,04,24,2.80
2006,04,17,04,25,2.70
2006,04,17,04,26,2.80
2006,04,17,04,27,2.80
2006,04,17,04,28,2.80
2006,04,17,04,29,2.80
2006,04,17,04,30,2.80
2006,04,17,04,31,2.90
2006,04,17,04,32,2.90
2006,04,17,04,33,2.90
2006,04,17,04,34,2.90
2006,04,17,04,35,2.90
2006,04,17,04,36,2.90
2006,04,17,04,37,2.90
2006,04,17,04,38,2.90
2006,04,17,04,39,2.90
2006,04,17,04,40,2.90
2006,04,17,04,41,2.90
2006,04,17,04,42,2.90
2006,04,17,04,43,2.90
2006,04,17,04,44,2.90
2006,04,17,04,45,2.90
2006,04,17,04,46,2.90
2006,04,17,04,47,3.10
2006,04,17,04,48,3.10
2006,04,17,04,49,3.10
2006,04,17,04,50,3.00
2006,04,17,04,51,2.90
2006,04,17,04,52,2.90
2006,04,17,04,53,2.90
2006,04,17,04,54,2.90
2006,04,17,04,55,2.90
2006,04,17,04,56,2.90
2006,04,17,04,57,2.90
2006,04,17,04,58,2.90
2006,04,17,04,59,2.90
2006,04,17,05,00,2.90
2006,04,17,05,01,3.00
2006,04,17,05,02,3.10
2006,04,17,05,03,3.10
2006,04,17,05,04,3.10
2006,04,17,05,05,3.10
2006,04,17,05,06,3.10
2006,04,17,05,07,3.10
2006,04,17,05,08,3.10
2006,04,17,05,09,3.10
2006,04,17,05,10,3.10
2006,04,17,05,11,3.10
2006,04,17,05,12,3.10
2006,04,17,05,13,3.20
2006,04,17,05,14,3.20
2006,04,17,05,15,3.20
2006,04,17,05,16,3.20
2006,04,17,05,17,3.20
2006,04,17,05,18,3.30
2006,04,17,05,19,3.20
2006,04,17,05,20,3.20
2006,04,17,05,21,3.20
2006,04,17,05,22,3.20
2006,04,17,05,23,3.20
2006,04,17,05,24,3.20
2006,04,17,05,25,3.20
2006,04,17,05,26,3.20
2006,04,17,05,27,3.20
2006,04,17,05,28,3.20
2006,04,17,05,29,3.20
2006,04,17,05,30,3.20
2006,04,17,05,31,3.30
2006,04,17,05,32,3.30
2006,04,17,05,33,3.30
2006,04,17,05,34,3.30
2006,04,17,05,35,3.30
2006,04,17,05,36,3.30
2006,04,17,05,37,3.30
2006,04,17,05,38,3.20
2006,04,17,05,39,3.20
2006,04,17,05,40,3.20
2006,04,17,05,41,3.20
2006,04,17,05,42,3.20
2006,04,17,05,43,3.20
2006,04,17,05,44,3.20
2006,04,17,05,45,3.30
2006,04,17,05,46,3.30
2006,04,17,05,47,3.30
2006,04,17,05,48,3.30
2006,04,17,05,49,3.30
2006,04,17,05,50,3.30
2006,04,17,05,51,3.30
2006,04,17,05,52,3.30
2006,04,17,05,53,3.30
2006,04,17,05,54,3.30
2006,04,17,05,55,3.30
2006,04,17,05,56,3.30
2006,04,17,05,57,3.30
2006,04,17,05,58,3.30
2006,04,17,05,59,3.30
2006,04,17,06,00,3.30
2006,04,17,06,01,3.30
2006,04,17,06,02,3.30
2006,04,17,06,03,3.30
2006,04,17,06,04,3.30
2006,04,17,06,05,3.30
2006,04,17,06,06,3.30
2006,04,17,06,07,3.30
2006,04,17,06,08,3.30
2006,04,17,06,09,3.30
2006,04,17,06,10,3.30
2006,04,17,06,11,3.30
2006,04,17,06,12,3.40
2006,04,17,06,13,3.40
2006,04,17,06,14,3.40
2006,04,17,06,15,3.40
2006,04,17,06,16,3.40
2006,04,17,06,17,3.40
2006,04,17,06,18,3.30
2006,04,17,06,19,3.30
2006,04,17,06,20,3.30
2006,04,17,06,21,3.30
2006,04,17,06,22,3.30
2006,04,17,06,23,3.30
2006,04,17,06,24,3.30
2006,04,17,06,25,3.30
2006,04,17,06,26,3.30
2006,04,17,06,27,3.30
2006,04,17,06,28,3.40
2006,04,17,06,29,3.40
2006,04,17,06,30,3.40
2006,04,17,06,31,3.50
2006,04,17,06,32,3.50
2006,04,17,06,33,3.50
2006,04,17,06,34,3.50
2006,04,17,06,35,3.50
2006,04,17,06,36,3.50
2006,04,17,06,37,3.50
2006,04,17,06,38,3.60
2006,04,17,06,39,3.60
2006,04,17,06,40,3.60
2006,04,17,06,41,3.60
2006,04,17,06,42,3.60
2006,04,17,06,43,3.60
2006,04,17,06,44,3.60
2006,04,17,06,45,3.60
2006,04,17,06,46,3.60
2006,04,17,06,47,3.60
2006,04,17,06,48,3.60
2006,04,17,06,49,3.60
2006,04,17,06,50,3.60
2006,04,17,06,51,3.70
2006,04,17,06,52,3.70
2006,04,17,06,53,3.70
2006,04,17,06,54,3.80
2006,04,17,06,55,3.80
2006,04,17,06,56,3.80
2006,04,17,06,57,3.80
2006,04,17,06,58,3.90
2006,04,17,06,59,3.90
2006,04,17,07,00,4.00
2006,04,17,07,01,4.00
2006,04,17,07,02,4.10
2006,04,17,07,03,4.20
2006,04,17,07,04,4.20
2006,04,17,07,05,4.20
2006,04,17,07,06,4.20
2006,04,17,07,07,4.20
2006,04,17,07,08,4.20
2006,04,17,07,09,4.30
2006,04,17,07,10,4.40
2006,04,17,07,11,4.40
2006,04,17,07,12,4.50
2006,04,17,07,13,4.50
2006,04,17,07,14,4.50
2006,04,17,07,15,4.50
2006,04,17,07,16,4.60
2006,04,17,07,17,4.60
2006,04,17,07,18,4.60
2006,04,17,07,19,4.60
2006,04,17,07,20,4.60
2006,04,17,07,21,4.60
2006,04,17,07,22,4.70
2006,04,17,07,23,4.70
2006,04,17,07,24,4.70
2006,04,17,07,25,4.70
2006,04,17,07,26,4.80
2006,04,17,07,27,4.80
2006,04,17,07,28,4.90
2006,04,17,07,29,4.90
2006,04,17,07,30,4.90
2006,04,17,07,31,4.90
2006,04,17,07,32,4.90
2006,04,17,07,33,5.00
2006,04,17,07,34,5.10
2006,04,17,07,35,5.10
2006,04,17,07,36,5.10
2006,04,17,07,37,5.10
2006,04,17,07,38,5.10
2006,04,17,07,39,5.10
2006,04,17,07,40,5.10
2006,04,17,07,41,5.10
2006,04,17,07,42,5.10
2006,04,17,07,43,5.20
2006,04,17,07,44,5.20
2006,04,17,07,45,5.20
2006,04,17,07,46,5.20
2006,04,17,07,47,5.30
2006,04,17,07,48,5.30
2006,04,17,07,49,5.30
2006,04,17,07,50,5.30
2006,04,17,07,51,5.30
2006,04,17,07,52,5.30
2006,04,17,07,53,5.30
2006,04,17,07,54,5.30
2006,04,17,07,55,5.30
2006,04,17,07,56,5.40
2006,04,17,07,57,5.40
2006,04,17,07,58,5.50
2006,04,17,07,59,5.50
2006,04,17,08,00,5.60
2006,04,17,08,01,5.60
2006,04,17,08,02,5.70
2006,04,17,08,03,5.90
2006,04,17,08,04,6.00
2006,04,17,08,05,6.00
2006,04,17,08,06,6.20
2006,04,17,08,07,6.20
2006,04,17,08,08,6.20
2006,04,17,08,09,6.30
2006,04,17,08,10,6.30
2006,04,17,08,11,6.40
2006,04,17,08,12,6.40
2006,04,17,08,13,6.40
2006,04,17,08,14,6.50
2006,04,17,08,15,6.50
2006,04,17,08,16,6.40
2006,04,17,08,17,6.50
2006,04,17,08,18,6.60
2006,04,17,08,19,6.60
2006,04,17,08,20,6.60
2006,04,17,08,21,6.60
2006,04,17,08,22,6.60
2006,04,17,08,23,6.60
2006,04,17,08,24,6.60
2006,04,17,08,25,6.70
2006,04,17,08,26,6.70
2006,04,17,08,27,6.70
2006,04,17,08,28,6.70
2006,04,17,08,29,6.70
2006,04,17,08,30,6.80
2006,04,17,08,31,6.80
2006,04,17,08,32,6.80
2006,04,17,08,33,6.80
2006,04,17,08,34,6.80
2006,04,17,08,35,6.80
2006,04,17,08,36,6.80
2006,04,17,08,37,6.80
2006,04,17,08,38,6.80
2006,04,17,08,39,6.80
2006,04,17,08,40,6.90
2006,04,17,08,41,6.90
2006,04,17,08,42,7.00
2006,04,17,08,43,7.00
2006,04,17,08,44,7.10
2006,04,17,08,45,7.20
2006,04,17,08,46,7.30
2006,04,17,08,47,7.30
2006,04,17,08,48,7.30
2006,04,17,08,49,7.30
2006,04,17,08,50,7.30
2006,04,17,08,51,7.30
2006,04,17,08,52,7.30
2006,04,17,08,53,7.30
2006,04,17,08,54,7.40
2006,04,17,08,55,7.40
2006,04,17,08,56,7.50
2006,04,17,08,57,7.50
2006,04,17,08,58,7.50
2006,04,17,08,59,7.50
2006,04,17,09,00,7.50
2006,04,17,09,01,7.50
2006,04,17,09,02,7.60
2006,04,17,09,03,7.60
2006,04,17,09,04,7.60
2006,04,17,09,05,7.50
2006,04,17,09,06,7.50
2006,04,17,09,07,7.50
2006,04,17,09,08,7.60
2006,04,17,09,09,7.60
2006,04,17,09,10,7.60
2006,04,17,09,11,7.70
2006,04,17,09,12,7.70
2006,04,17,09,13,7.80
2006,04,17,09,14,7.80
2006,04,17,09,15,7.80
2006,04,17,09,16,7.80
2006,04,17,09,17,7.90
2006,04,17,09,18,7.90
2006,04,17,09,19,7.90
2006,04,17,09,20,8.00
2006,04,17,09,21,8.00
2006,04,17,09,22,8.00
2006,04,17,09,23,8.00
2006,04,17,09,24,8.00
2006,04,17,09,25,8.10
2006,04,17,09,26,8.10
2006,04,17,09,27,8.10
2006,04,17,09,28,8.10
2006,04,17,09,29,8.10
2006,04,17,09,30,8.00
2006,04,17,09,31,8.00
2006,04,17,09,32,7.90
2006,04,17,09,33,7.90
2006,04,17,09,34,7.90
2006,04,17,09,35,7.90
2006,04,17,09,36,7.90
2006,04,17,09,37,8.00
2006,04,17,09,38,8.00
2006,04,17,09,39,8.00
2006,04,17,09,40,8.10
2006,04,17,09,41,8.00
2006,04,17,09,42,8.00
2006,04,17,09,43,8.00
2006,04,17,09,44,8.00
2006,04,17,09,45,8.00
2006,04,17,09,46,7.90
2006,04,17,09,47,7.90
2006,04,17,09,48,7.90
2006,04,17,09,49,7.90
2006,04,17,09,50,7.90
2006,04,17,09,51,8.00
2006,04,17,09,52,8.10
2006,04,17,09,53,8.20
2006,04,17,09,54,8.20
2006,04,17,09,55,8.20
2006,04,17,09,56,8.20
2006,04,17,09,57,8.20
2006,04,17,09,58,8.20
2006,04,17,09,59,8.20
2006,04,17,10,00,8.10
2006,04,17,10,01,8.10
2006,04,17,10,02,8.10
2006,04,17,10,03,8.10
2006,04,17,10,04,8.20
2006,04,17,10,05,8.20
2006,04,17,10,06,8.30
2006,04,17,10,07,8.40
2006,04,17,10,08,8.40
2006,04,17,10,09,8.50
2006,04,17,10,10,8.60
2006,04,17,10,11,8.70
2006,04,17,10,12,8.70
2006,04,17,10,13,8.70
2006,04,17,10,14,8.70
2006,04,17,10,15,8.70
2006,04,17,10,16,8.80
2006,04,17,10,17,8.80
2006,04,17,10,18,8.80
2006,04,17,10,19,8.70
2006,04,17,10,20,8.70
2006,04,17,10,21,8.80
2006,04,17,10,22,8.70
2006,04,17,10,23,8.70
2006,04,17,10,24,8.70
2006,04,17,10,25,8.80
2006,04,17,10,26,8.80
2006,04,17,10,27,8.90
2006,04,17,10,28,8.90
2006,04,17,10,29,8.90
2006,04,17,10,30,8.90
2006,04,17,10,31,9.10
2006,04,17,10,32,9.10
2006,04,17,10,33,9.10
2006,04,17,10,34,9.10
2006,04,17,10,35,9.10
2006,04,17,10,36,9.20
2006,04,17,10,37,9.20
2006,04,17,10,38,9.20
2006,04,17,10,39,9.10
2006,04,17,10,40,9.00
2006,04,17,10,41,8.90
2006,04,17,10,42,8.90
2006,04,17,10,43,8.90
2006,04,17,10,44,8.90
2006,04,17,10,45,8.90
2006,04,17,10,46,9.10
2006,04,17,10,47,9.10
2006,04,17,10,48,9.00
2006,04,17,10,49,8.90
2006,04,17,10,50,9.00
2006,04,17,10,51,9.10
2006,04,17,10,52,9.10
2006,04,17,10,53,9.10
2006,04,17,10,54,9.20
2006,04,17,10,55,9.60
2006,04,17,10,56,9.50
2006,04,17,10,57,9.40
2006,04,17,10,58,9.30
2006,04,17,10,59,9.20
2006,04,17,11,00,9.10
2006,04,17,11,01,9.00
2006,04,17,11,02,9.00
2006,04,17,11,03,9.10
2006,04,17,11,04,9.20
2006,04,17,11,05,9.30
2006,04,17,11,06,9.40
2006,04,17,11,07,9.40
2006,04,17,11,08,9.50
2006,04,17,11,09,9.40
2006,04,17,11,10,9.40
2006,04,17,11,11,9.40
2006,04,17,11,12,9.50
2006,04,17,11,13,9.50
2006,04,17,11,14,9.60
2006,04,17,11,15,9.60
2006,04,17,11,16,9.70
2006,04,17,11,17,9.70
2006,04,17,11,18,9.70
2006,04,17,11,19,9.60
2006,04,17,11,20,9.50
2006,04,17,11,21,9.60
2006,04,17,11,22,9.60
2006,04,17,11,23,9.70
2006,04,17,11,24,9.70
2006,04,17,11,25,9.70
2006,04,17,11,26,9.70
2006,04,17,11,27,9.70
2006,04,17,11,28,9.70
2006,04,17,11,29,9.70
2006,04,17,11,30,9.80
2006,04,17,11,31,9.90
2006,04,17,11,32,10.10
2006,04,17,11,33,10.10
2006,04,17,11,34,10.10
2006,04,17,11,35,10.10
2006,04,17,11,36,10.10
2006,04,17,11,37,10.10
2006,04,17,11,38,10.10
2006,04,17,11,39,10.20
2006,04,17,11,40,10.20
2006,04,17,11,41,10.10
2006,04,17,11,42,9.90
2006,04,17,11,43,9.80
2006,04,17,11,44,9.70
2006,04,17,11,45,9.80
2006,04,17,11,46,9.80
2006,04,17,11,47,9.80
2006,04,17,11,48,9.90
2006,04,17,11,49,9.90
2006,04,17,11,50,9.90
2006,04,17,11,51,9.90
2006,04,17,11,52,9.90
2006,04,17,11,53,9.90
2006,04,17,11,54,9.90
2006,04,17,11,55,9.80
2006,04,17,11,56,9.70
2006,04,17,11,57,9.80
2006,04,17,11,58,9.90
2006,04,17,11,59,10.00
2006,04,17,12,00,10.10
2006,04,17,12,01,10.10
2006,04,17,12,02,10.10
2006,04,17,12,03,10.10
2006,04,17,12,04,10.30
2006,04,17,12,05,10.40
2006,04,17,12,06,10.60
2006,04,17,12,07,10.70
2006,04,17,12,08,10.80
2006,04,17,12,09,10.80
2006,04,17,12,10,10.80
2006,04,17,12,11,10.90
2006,04,17,12,12,10.90
2006,04,17,12,13,10.90
2006,04,17,12,14,10.90
2006,04,17,12,15,10.90
2006,04,17,12,16,10.80
2006,04,17,12,17,10.70
2006,04,17,12,18,10.80
2006,04,17,12,19,10.80
2006,04,17,12,20,10.70
2006,04,17,12,21,10.60
2006,04,17,12,22,10.50
2006,04,17,12,23,10.60
2006,04,17,12,24,10.70
2006,04,17,12,25,10.70
2006,04,17,12,26,10.60
2006,04,17,12,27,10.40
2006,04,17,12,28,10.30
2006,04,17,12,29,10.30
2006,04,17,12,30,10.20
2006,04,17,12,31,10.00
2006,04,17,12,32,9.90
2006,04,17,12,33,9.90
2006,04,17,12,34,9.80
2006,04,17,12,35,9.70
2006,04,17,12,36,9.70
2006,04,17,12,37,9.70
2006,04,17,12,38,9.90
2006,04,17,12,39,10.10
2006,04,17,12,40,10.10
2006,04,17,12,41,10.10
2006,04,17,12,42,10.30
2006,04,17,12,43,10.30
2006,04,17,12,44,10.30
2006,04,17,12,45,10.20
2006,04,17,12,46,10.10
2006,04,17,12,47,9.90
2006,04,17,12,48,9.70
2006,04,17,12,49,9.70
2006,04,17,12,50,9.70
2006,04,17,12,51,9.70
2006,04,17,12,52,9.70
2006,04,17,12,53,9.80
2006,04,17,12,54,9.80
2006,04,17,12,55,9.70
2006,04,17,12,56,9.70
2006,04,17,12,57,9.70
2006,04,17,12,58,9.60
2006,04,17,12,59,9.60
2006,04,17,13,00,9.60
2006,04,17,13,01,9.70
2006,04,17,13,02,9.80
2006,04,17,13,03,9.90
2006,04,17,13,04,10.00
2006,04,17,13,05,10.10
2006,04,17,13,06,10.00
2006,04,17,13,07,9.90
2006,04,17,13,08,9.90
2006,04,17,13,09,9.90
2006,04,17,13,10,10.00
2006,04,17,13,11,9.90
2006,04,17,13,12,9.90
2006,04,17,13,13,9.80
2006,04,17,13,14,9.80
2006,04,17,13,15,9.90
2006,04,17,13,16,9.90
2006,04,17,13,17,9.90
2006,04,17,13,18,9.90
2006,04,17,13,19,9.90
2006,04,17,13,20,9.90
2006,04,17,13,21,10.00
2006,04,17,13,22,10.10
2006,04,17,13,23,9.90
2006,04,17,13,24,9.80
2006,04,17,13,25,9.70
2006,04,17,13,26,9.70
2006,04,17,13,27,9.80
2006,04,17,13,28,9.90
2006,04,17,13,29,10.00
2006,04,17,13,30,10.10
2006,04,17,13,31,10.10
2006,04,17,13,32,10.10
2006,04,17,13,33,10.10
2006,04,17,13,34,10.10
2006,04,17,13,35,10.20
2006,04,17,13,36,10.30
2006,04,17,13,37,10.30
2006,04,17,13,38,10.30
2006,04,17,13,39,10.30
2006,04,17,13,40,10.20
2006,04,17,13,41,10.20
2006,04,17,13,42,10.20
2006,04,17,13,43,10.20
2006,04,17,13,44,10.20
2006,04,17,13,45,10.30
2006,04,17,13,46,10.50
2006,04,17,13,47,10.60
2006,04,17,13,48,10.70
2006,04,17,13,49,10.80
2006,04,17,13,50,10.90
2006,04,17,13,51,10.80
2006,04,17,13,52,10.80
2006,04,17,13,53,10.70
2006,04,17,13,54,10.60
2006,04,17,13,55,10.60
2006,04,17,13,56,10.70
2006,04,17,13,57,10.80
2006,04,17,13,58,10.90
2006,04,17,13,59,10.90
2006,04,17,14,00,10.70
2006,04,17,14,01,10.50
2006,04,17,14,02,10.20
2006,04,17,14,03,9.90
2006,04,17,14,04,9.80
2006,04,17,14,05,9.80
2006,04,17,14,06,9.70
2006,04,17,14,07,9.70
2006,04,17,14,08,9.70
2006,04,17,14,09,9.70
2006,04,17,14,10,9.70
2006,04,17,14,11,9.70
2006,04,17,14,12,9.70
2006,04,17,14,13,9.70
2006,04,17,14,14,9.70
2006,04,17,14,15,9.70
2006,04,17,14,16,9.80
2006,04,17,14,17,9.90
2006,04,17,14,18,10.10
2006,04,17,14,19,10.10
2006,04,17,14,20,10.00
2006,04,17,14,21,9.90
2006,04,17,14,22,10.10
2006,04,17,14,23,10.40
2006,04,17,14,24,10.40
2006,04,17,14,25,10.50
2006,04,17,14,26,10.60
2006,04,17,14,27,10.50
2006,04,17,14,28,10.30
2006,04,17,14,29,10.10
2006,04,17,14,30,10.10
2006,04,17,14,31,10.30
2006,04,17,14,32,10.50
2006,04,17,14,33,10.50
2006,04,17,14,34,10.30
2006,04,17,14,35,10.20
2006,04,17,14,36,10.20
2006,04,17,14,37,10.20
2006,04,17,14,38,10.40
2006,04,17,14,39,10.60
2006,04,17,14,40,10.70
2006,04,17,14,41,10.80
2006,04,17,14,42,10.90
2006,04,17,14,43,10.90
2006,04,17,14,44,10.90
2006,04,17,14,45,10.90
2006,04,17,14,46,10.90
2006,04,17,14,47,11.00
2006,04,17,14,48,11.10
2006,04,17,14,49,11.00
2006,04,17,14,50,10.90
2006,04,17,14,51,10.70
2006,04,17,14,52,10.50
2006,04,17,14,53,10.40
2006,04,17,14,54,10.40
2006,04,17,14,55,10.40
2006,04,17,14,56,10.40
2006,04,17,14,57,10.30
2006,04,17,14,58,10.30
2006,04,17,14,59,10.30
2006,04,17,15,00,10.20
2006,04,17,15,01,10.10
2006,04,17,15,02,9.90
2006,04,17,15,03,9.90
2006,04,17,15,04,10.00
2006,04,17,15,05,10.00
2006,04,17,15,06,9.90
2006,04,17,15,07,9.90
2006,04,17,15,08,9.80
2006,04,17,15,09,9.70
2006,04,17,15,10,9.70
2006,04,17,15,11,9.70
2006,04,17,15,12,9.70
2006,04,17,15,13,9.80
2006,04,17,15,14,9.90
2006,04,17,15,15,10.00
2006,04,17,15,16,9.90
2006,04,17,15,17,9.90
2006,04,17,15,18,10.00
2006,04,17,15,19,10.10
2006,04,17,15,20,10.10
2006,04,17,15,21,10.10
2006,04,17,15,22,10.20
2006,04,17,15,23,10.30
2006,04,17,15,24,10.40
2006,04,17,15,25,10.40
2006,04,17,15,26,10.40
2006,04,17,15,27,10.40
2006,04,17,15,28,10.30
2006,04,17,15,29,10.20
2006,04,17,15,30,10.00
2006,04,17,15,31,9.90
2006,04,17,15,32,9.90
2006,04,17,15,33,9.90
2006,04,17,15,34,10.00
2006,04,17,15,35,10.10
2006,04,17,15,36,10.10
2006,04,17,15,37,10.10
2006,04,17,15,38,10.10
2006,04,17,15,39,10.10
2006,04,17,15,40,10.20
2006,04,17,15,41,10.20
2006,04,17,15,42,10.40
2006,04,17,15,43,10.40
2006,04,17,15,44,10.40
2006,04,17,15,45,10.40
2006,04,17,15,46,10.30
2006,04,17,15,47,10.30
2006,04,17,15,48,10.40
2006,04,17,15,49,10.40
2006,04,17,15,50,10.30
2006,04,17,15,51,10.20
2006,04,17,15,52,10.20
2006,04,17,15,53,10.40
2006,04,17,15,54,10.40
2006,04,17,15,55,10.40
2006,04,17,15,56,10.40
2006,04,17,15,57,10.40
2006,04,17,15,58,10.40
2006,04,17,15,59,10.40
2006,04,17,16,00,10.20
2006,04,17,16,01,10.20
2006,04,17,16,02,10.10
2006,04,17,16,03,9.90
2006,04,17,16,04,9.80
2006,04,17,16,05,9.70
2006,04,17,16,06,9.70
2006,04,17,16,07,9.60
2006,04,17,16,08,9.60
2006,04,17,16,09,9.60
2006,04,17,16,10,9.60
2006,04,17,16,11,9.60
2006,04,17,16,12,9.70
2006,04,17,16,13,9.70
2006,04,17,16,14,9.90
2006,04,17,16,15,9.80
2006,04,17,16,16,9.70
2006,04,17,16,17,9.70
2006,04,17,16,18,9.70
2006,04,17,16,19,9.70
2006,04,17,16,20,9.70
2006,04,17,16,21,9.70
2006,04,17,16,22,9.70
2006,04,17,16,23,9.90
2006,04,17,16,24,9.90
2006,04,17,16,25,9.80
2006,04,17,16,26,9.80
2006,04,17,16,27,9.80
2006,04,17,16,28,9.70
2006,04,17,16,29,9.60
2006,04,17,16,30,9.60
2006,04,17,16,31,9.70
2006,04,17,16,32,9.70
2006,04,17,16,33,9.70
2006,04,17,16,34,9.70
2006,04,17,16,35,9.70
2006,04,17,16,36,9.60
2006,04,17,16,37,9.60
2006,04,17,16,38,9.60
2006,04,17,16,39,9.60
2006,04,17,16,40,9.70
2006,04,17,16,41,9.70
2006,04,17,16,42,9.70
2006,04,17,16,43,9.70
2006,04,17,16,44,9.70
2006,04,17,16,45,9.60
2006,04,17,16,46,9.60
2006,04,17,16,47,9.60
2006,04,17,16,48,9.60
2006,04,17,16,49,9.60
2006,04,17,16,50,9.60
2006,04,17,16,51,9.60
2006,04,17,16,52,9.60
2006,04,17,16,53,9.60
2006,04,17,16,54,9.70
2006,04,17,16,55,9.70
2006,04,17,16,56,9.70
2006,04,17,16,57,9.70
2006,04,17,16,58,9.70
2006,04,17,16,59,9.80
2006,04,17,17,00,9.80
2006,04,17,17,01,9.80
2006,04,17,17,02,9.80
2006,04,17,17,03,9.80
2006,04,17,17,04,9.90
2006,04,17,17,05,9.90
2006,04,17,17,06,9.90
2006,04,17,17,07,9.90
2006,04,17,17,08,9.90
2006,04,17,17,09,9.90
2006,04,17,17,10,9.90
2006,04,17,17,11,10.00
2006,04,17,17,12,10.10
2006,04,17,17,13,10.10
2006,04,17,17,14,10.10
2006,04,17,17,15,10.10
2006,04,17,17,16,10.20
2006,04,17,17,17,10.20
2006,04,17,17,18,10.20
2006,04,17,17,19,10.20
2006,04,17,17,20,10.20
2006,04,17,17,21,10.10
2006,04,17,17,22,10.10
2006,04,17,17,23,10.10
2006,04,17,17,24,10.10
2006,04,17,17,25,10.00
2006,04,17,17,26,9.90
2006,04,17,17,27,9.90
2006,04,17,17,28,9.90
2006,04,17,17,29,9.90
2006,04,17,17,30,9.90
2006,04,17,17,31,9.90
2006,04,17,17,32,9.90
2006,04,17,17,33,9.90
2006,04,17,17,34,9.90
2006,04,17,17,35,10.00
2006,04,17,17,36,10.10
2006,04,17,17,37,10.10
2006,04,17,17,38,10.20
2006,04,17,17,39,10.30
2006,04,17,17,40,10.40
2006,04,17,17,41,10.50
2006,04,17,17,42,10.60
2006,04,17,17,43,10.70
2006,04,17,17,44,10.70
2006,04,17,17,45,10.70
2006,04,17,17,46,10.70
2006,04,17,17,47,10.70
2006,04,17,17,48,10.80
2006,04,17,17,49,10.80
2006,04,17,17,50,10.80
2006,04,17,17,51,10.80
2006,04,17,17,52,10.80
2006,04,17,17,53,10.80
2006,04,17,17,54,10.70
2006,04,17,17,55,10.70
2006,04,17,17,56,10.70